Weather History for Kalispell, MT

Change the Weather History Date:

Wednesday, October 10, 2012

  Actual Average Record
Temperature  
Mean Temperature 44 °F 44 °F  
Max Temperature 63 °F 58 °F 77 °F (1988)
Min Temperature 24 °F 30 °F 5 °F (2009)
Degree Days  
Heating Degree Days 21 21  
Month to date heating degree days 217 190  
Since 1 July heating degree days 603 690  
Cooling Degree Days 0 0  
Month to date cooling degree days 0 0  
Year to date cooling degree days 192 147  
Moisture  
Dew Point 31 °F    
Average Humidity 68    
Maximum Humidity 100    
Minimum Humidity 36    
Precipitation  
Precipitation 0.00 in 0.03 in 0.56 in (1943)
Month to date precipitation 0.36 0.29  
Year to date precipitation 15.31 13.28  
Snow  
Snow 0.00 in - - ()
Month to date snowfall 0.0  
Year to date snowfall 25.1  
Since 1 July snowfall 0.0  
Snow Depth 0.00 in    
Sea Level Pressure  
Sea Level Pressure 30.01 in    
Wind  
Wind Speed 8 mph (NE)    
Max Wind Speed 31 mph    
Max Gust Speed 41 mph    
Visibility 9 miles    
Events      
T = Trace of Precipitation, MM = Missing Value Source: NWS Daily Summary

Daily Weather History Graph

Daily Weather History Graph

Search for Another Location

Airport:

Trip Planner

Search our weather history database for the weather conditions in past years. The results will help you decide how hot, cold, wet, or windy it might be!

Date:

Astronomy

Oct. 10, 2012 Rise Set
Actual Time 7:50 AM MDT 6:56 PM MDT
Civil Twilight 7:18 AM MDT 7:27 PM MDT
Nautical Twilight 6:42 AM MDT 8:04 PM MDT
Astronomical Twilight 6:06 AM MDT 8:40 PM MDT
Moon 2:07 AM MDT (10/10) 4:21 PM MDT (10/10)
Length of Visible Light 12h 09m
Length of Day
11h 06m
Waning Crescent, 26% of the Moon is Illuminated
Oct 10
Waning Crescent
Oct 15
New
Oct 21
First Quarter
Oct 29
Full
Nov 6
Last Quarter

Hourly Weather History & Observations

Time (MDT) Temp. Windchill Dew Point Humidity Pressure Visibility Wind Dir Wind Speed Gust Speed Precip Events Conditions
12:55 AM 33.1 °F 30.0 °F 30.0 °F 89% 30.07 in 10.0 mi NNE 3.5 mph - N/A   Clear
3:55 AM 26.1 °F - 26.1 °F 100% 30.06 in 3.0 mi Calm Calm - N/A   Clear
4:55 AM 28.0 °F - 27.0 °F 96% 30.05 in 7.0 mi Calm Calm - N/A   Clear
5:25 AM 26.6 °F - 26.6 °F 100% 30.02 in 2.5 mi Calm Calm - N/A   Clear
5:32 AM 28.4 °F - 26.6 °F 93% 30.02 in 10.0 mi Calm Calm - N/A   Clear
5:55 AM 25.0 °F - 24.1 °F 96% 30.06 in 6.0 mi Calm Calm - N/A   Clear
6:02 AM 26.6 °F 22.6 °F 24.8 °F 93% 30.01 in 1.8 mi SW 3.5 mph - N/A   Clear
6:09 AM 24.8 °F - 24.8 °F 100% 30.01 in 3.0 mi Calm Calm - N/A   Clear
6:55 AM 27.0 °F - 25.0 °F 92% 30.07 in 10.0 mi Calm Calm - N/A   Clear
7:55 AM 25.0 °F 20.7 °F 23.0 °F 92% 30.09 in 10.0 mi North 3.5 mph - N/A   Clear
8:55 AM 33.1 °F - 30.0 °F 89% 30.08 in 10.0 mi Calm Calm - N/A   Clear
9:55 AM 43.0 °F - 36.0 °F 76% 30.08 in 10.0 mi Calm Calm - N/A   Clear
10:55 AM 46.9 °F - 37.0 °F 68% 30.06 in 10.0 mi Calm Calm - N/A   Clear
11:55 AM 51.1 °F - 35.1 °F 54% 30.04 in 10.0 mi Variable 3.5 mph - N/A   Clear
12:55 PM 55.0 °F - 37.0 °F 51% 30.02 in 10.0 mi Variable 3.5 mph - N/A   Mostly Cloudy
1:55 PM 59.0 °F - 36.0 °F 42% 29.99 in 10.0 mi South 5.8 mph - N/A   Partly Cloudy
2:55 PM 62.1 °F - 36.0 °F 38% 29.93 in 10.0 mi SSE 6.9 mph - N/A   Clear
3:55 PM 63.0 °F - 36.0 °F 37% 29.94 in 10.0 mi SSE 9.2 mph - N/A   Clear
4:55 PM 62.1 °F - 36.0 °F 38% 29.92 in 10.0 mi South 9.2 mph - N/A   Mostly Cloudy
5:55 PM 60.8 °F - 37.4 °F 42% 29.89 in 10.0 mi Calm Calm - N/A   Mostly Cloudy
6:55 PM 55.0 °F - 37.9 °F 53% 29.94 in 10.0 mi NNE 5.8 mph - N/A   Mostly Cloudy
7:55 PM 54.0 °F - 36.0 °F 51% 29.96 in 10.0 mi NNE 18.4 mph - N/A   Overcast
8:55 PM 52.0 °F - 34.0 °F 50% 29.96 in 10.0 mi NNE 28.8 mph 41.4 mph N/A   Overcast
9:55 PM 48.9 °F - 32.0 °F 52% 29.97 in 10.0 mi NNE 24.2 mph 33.4 mph N/A   Mostly Cloudy
10:55 PM 46.9 °F - 30.0 °F 52% 29.99 in 10.0 mi NNE 24.2 mph 33.4 mph N/A   Mostly Cloudy
11:55 PM 45.0 °F 36.6 °F 30.0 °F 56% 30.01 in 10.0 mi NNE 21.9 mph 29.9 mph N/A   Clear